Back to catalog

STARLINK-33579

AliveCommunicationsVLEO
NORAD 62764·PAYLOAD·🇺🇸 United States

Launched Jan 21, 2025 from Vandenberg Space Force Base

Loading…

Next Passes (next 24 hours)

TLE

FreshSource: CelesTrak SupGP

Epoch: Sep 14, 2026, 14:56 UTC

1 62764C 25015G   26257.62270833  .00068740  00000+0  22105-2 0  2574
2 62764  53.1566 163.1313 0001322 101.7869 211.8685 15.31667136    12

Track STARLINK-33579 in real time with AllMySat

Download on the App Store